Regional Weather Roundup
Issued by NWS

Home | Current Version | Previous Version | Text Only | Print | Product List | Glossary Off
Versions: 1 2 3 4 5 6 7 8 9 10 11 12 13 14 15 16 17 18 19 20 21 22 23 24 25 26 27 28 29 30 31 32 33 34 35 36 37 38 39 40 41 42 43 44 45 46 47 48 49 50

000
ASUS43 KLOT 180610
RWRIL

ILLINOIS REGIONAL WEATHER ROUNDUP
NATIONAL WEATHER SERVICE CHICAGO/ROMEOVILLE IL
100 AM CDT FRI APR 18 2014

NOTE: "FAIR" INDICATES FEW OR NO CLOUDS BELOW 12,000 FEET WITH NO
SIGNIFICANT WEATHER AND/OR OBSTRUCTIONS TO VISIBILITY.

* THESE STATIONS ARE NOT UNDER NWS QUALITY CONTROL. THEY ALSO MAY NOT
  REPORT WEATHER SUCH AS PRECIPITATION OR FOG.

ILZ001-002-007-009-015-016-024-180700-
NORTHWEST ILLINOIS

CITY           SKY/WX    TMP DP  RH WIND       PRES   REMARKS
MOLINE         FAIR      42  33  70 NW6       30.29R
6HR MIN TEMP:  35; 6HR MAX TEMP:  52;

STERLING*      FAIR      43  34  70 N9        30.28R
SAVANNA*       FAIR      41  33  73 N5        30.29S
$$

ILZ003-004-008-010-011-017-018-180700-
NORTH CENTRAL ILLINOIS

CITY           SKY/WX    TMP DP  RH WIND       PRES   REMARKS
ROCKFORD       MOCLDY    43  34  70 N14       30.30R
6HR MIN TEMP:  43; 6HR MAX TEMP:  55;

FREEPORT*      FAIR      40  36  84 N9        30.31R
ROCHELLE*      FAIR      40  35  81 NW6       30.28R
DE KALB*       FAIR      44  36  73 NW9       30.27R
PERU*          FAIR      45  37  73 CALM      30.28R
$$

ILZ005-006-012>014-019>023-180700-
NORTHEAST ILLINOIS

CITY           SKY/WX    TMP DP  RH WIND       PRES   REMARKS
CHICAGO-OHARE  CLOUDY    47  36  65 SE6       30.26R
6HR MIN TEMP:  47; 6HR MAX TEMP:  57;

CHICAGO-MIDWAY CLOUDY    50  39  66 E3        30.26R
6HR MIN TEMP:  50; 6HR MAX TEMP:  58;

AURORA         FAIR      45  37  73 SW6       30.27R
6HR MIN TEMP:  42; 6HR MAX TEMP:  55;

LANSING*       CLOUDY    47  43  84 SW3       30.26S
WAUKEGAN       FAIR      40  35  83 S3        30.25R
6HR MIN TEMP:  38; 6HR MAX TEMP:  50;

DUPAGE AIRPORT FAIR      48  37  65 W7        30.26R
6HR MIN TEMP:  46; 6HR MAX TEMP:  55;

KANKAKEE*      CLOUDY    49  43  81 NW5       30.27F
WHEELING       FAIR      46  37  71 S3        30.27R
6HR MIN TEMP:  46; 6HR MAX TEMP:  58;

MORRIS*        FAIR      47  35  63 W7        30.27R
ROMEOVILLE*    FAIR      47  38  72 W6        30.27R
NORTHERLY ISL    N/A     45  37  73 SE1         N/A
$$

LMZ740>746-180700-
SOUTHERN LAKE MICHIGAN

STATION/POSITION SKY/WX   TEMP    WIND        PRES    VSBY  WAVE
                          AIR SEA DIR/SP/G                  HT/PER
                          (F)     (DEG/KT/KT) (MB)    (MI)  (FT/S)
WAUKEGAN HARBOR            44     190/  6/  7 1025.7S
HARRISON CRIB              44     140/  7/  9   N/A
BURNHAM HARBOR             45     170/  2/  3   N/A
CALUMET HARBOR             46      80/  4/  6 1025.4S
MICHIGAN CITY              45      40/  2/  3   N/A
$$

ILZ025>027-034>036-040-047-049-050-058-095>099-180700-
WEST-CENTRAL ILLINOIS

CITY           SKY/WX    TMP DP  RH WIND       PRES   REMARKS
QUINCY         CLOUDY    45  38  76 CALM      30.29R
GALESBURG*     FAIR      37  34  90 CALM      30.28S
MACOMB*        MOCLDY    39  35  84 W3        30.31R
JACKSONVILLE*  CLOUDY    46  39  74 NW3       30.29F
PITTSFIELD*    MOCLDY    47  39  73 CALM      30.29F
$$

ILZ028>032-037-038-041>044-048-051>054-059>061-180700-
CENTRAL ILLINOIS

CITY           SKY/WX    TMP DP  RH WIND       PRES   REMARKS
PONTIAC        DRIZZLE   48  43  81 W5        30.28S
BLOOMINGTON    FAIR      47  36  65 NW7       30.28F
DECATUR        FAIR      50  40  68 N9        30.27S
PEORIA         CLOUDY    48  36  63 CALM      30.29R
6HR MIN TEMP:  48; 6HR MAX TEMP:  53; 6HR PCP: TRACE;

LACON*         MOCLDY    46  37  70 CALM      30.28S
LINCOLN*       CLOUDY    49  39  66 CALM      30.27F
SPRINGFIELD    CLOUDY    49  38  65 N6        30.28F
6HR MIN TEMP:  49; 6HR MAX TEMP:  57;

TAYLORVILLE    FAIR      46  39  76 N5        30.27S
$$

ILZ033-039-045-046-055>057-062-063-180700-
EAST-CENTRAL ILLINOIS

CITY           SKY/WX    TMP DP  RH WIND       PRES   REMARKS
CHAMPAIGN      CLOUDY    48  40  73 N3        30.27R
RANTOUL*       MOCLDY    52  40  64 CALM      30.28S
MATTOON        FAIR      46  40  79 N5        30.25F
PARIS*         FAIR      46  40  79 CALM      30.27S
$$

ILZ079-100>102-180700-
SOUTHWEST ILLINOIS

CITY           SKY/WX    TMP DP  RH WIND       PRES   REMARKS
ALTON          CLOUDY    51  39  63 CALM      30.27F
BELLEVILLE     FAIR      54  43  66 N7        30.25S
CAHOKIA*       CLOUDY    52  42  69 N6        30.27S
SPARTA*        FAIR      50  39  66 N3        30.26S
$$

ILZ064>066-069>071-074>076-080>082-084>086-088>090-092>094-180700-
SOUTH-CENTRAL ILLINOIS

CITY           SKY/WX    TMP DP  RH WIND       PRES   REMARKS
CARBONDALE     FAIR      47  41  80 CALM      30.24S
6HR MIN TEMP:  45; 6HR MAX TEMP:  60;

CAIRO*         FAIR      49  45  84 CALM      30.24R
MARION         FAIR      46  43  87 CALM      30.25S
MT. VERNON     FAIR      41  30  65 CALM      30.26S
CENTRALIA*       N/A     48  41  79 CALM      30.25S
SALEM*         FAIR      52  40  64 CALM      30.26R
METROPOLIS*    FAIR      47  40  76 CALM      30.23S
$$

ILZ067-068-072-073-078-083-087-091-180700-
SOUTHEAST ILLINOIS

CITY           SKY/WX    TMP DP  RH WIND       PRES   REMARKS
FAIRFIELD*     FAIR      48  43  81 CALM      30.25S
HARRISBURG*    FAIR      46  40  81 N6        30.26S
ROBINSON*      FAIR      46  43  88 CALM      30.26S
CARMI*         FAIR      47  44  90 W3        30.24F
$$

ABBREVIATIONS USED IN REMARKS
   TC - TEMPERATURE IN CELSIUS
  WCI - WIND CHILL INDEX
   HX - HEAT INDEX
  VSB - VISIBILITY
$$




USA.gov is the U.S. government's official web portal to all federal, state and local government web resources and services.